• In Kazakhstan
  • List of Countries
  • For 7 days
  • Water Temperature
  • Satellite Maps
  • Weather Map
  • News
  • Weather Widgets
  • user-avatar
    Login

    Hourly Weather Waterbury

    Today, 22 November, Wednesday

    Time Temperature Precipitation Wind Pressure Humidity
    00:00 +7°C° 0 mm 3 mps 749 mmHg 77%
    01:00 +7°C° 0 mm 2 mps 748 mmHg 78%
    02:00 +7°C° 0 mm 2 mps 748 mmHg 81%
    03:00 +7°C° 0 mm 2 mps 748 mmHg 84%
    04:00 +8°C° 0 mm 1 mps 747 mmHg 86%
    05:00 +8°C° 0.2 mm 1 mps 747 mmHg 89%
    06:00 +8°C° 0.2 mm 1 mps 747 mmHg 91%
    07:00 +9°C° 0 mm 1 mps 746 mmHg 94%
    08:00 +9°C° 1.7 mm 1 mps 746 mmHg 95%
    09:00 +10°C° 1.7 mm 1 mps 746 mmHg 96%
    10:00 +10°C° 1.7 mm 1 mps 745 mmHg 96%
    11:00 +9°C° 0.7 mm 2 mps 745 mmHg 93%
    12:00 +8°C° 0.7 mm 3 mps 745 mmHg 89%
    13:00 +7°C° 0.7 mm 4 mps 745 mmHg 86%
    14:00 +6°C° 0.1 mm 5 mps 745 mmHg 81%
    15:00 +5°C° 0.1 mm 5 mps 745 mmHg 77%
    16:00 +4°C° 0.1 mm 6 mps 745 mmHg 73%
    17:00 +2°C° 0 mm 6 mps 746 mmHg 72%
    18:00 +1°C° 0 mm 6 mps 747 mmHg 72%
    19:00 -1°C° 0 mm 6 mps 748 mmHg 71%
    20:00 -1°C° 0 mm 5 mps 748 mmHg 72%
    21:00 -1°C° 0 mm 5 mps 748 mmHg 72%
    22:00 -2°C° 0 mm 5 mps 749 mmHg 72%
    23:00 -3°C° 0 mm 4 mps 749 mmHg 72%

    Tomorrow, 23 November, Thursday

    Time Temperature Precipitation Wind Pressure Humidity
    00:00 -3°C° 0 mm 4 mps 749 mmHg 72%
    01:00 -2°C° 0 mm 3 mps 749 mmHg 72%
    02:00 -4°C° 0 mm 3 mps 749 mmHg 71%
    03:00 -4°C° 0 mm 3 mps 749 mmHg 70%
    04:00 -4°C° 0 mm 3 mps 749 mmHg 69%
    05:00 -4°C° 0 mm 3 mps 749 mmHg 66%
    06:00 -4°C° 0 mm 3 mps 749 mmHg 64%
    07:00 -4°C° 0 mm 3 mps 749 mmHg 61%
    08:00 -2°C° 0 mm 2 mps 750 mmHg 54%
    09:00 +1°C° 0 mm 2 mps 750 mmHg 47%
    10:00 +2°C° 0 mm 2 mps 750 mmHg 40%
    11:00 +3°C° 0 mm 2 mps 750 mmHg 37%
    12:00 +4°C° 0 mm 2 mps 749 mmHg 35%
    13:00 +5°C° 0 mm 2 mps 748 mmHg 32%
    14:00 +4°C° 0 mm 2 mps 748 mmHg 36%
    15:00 +4°C° 0 mm 2 mps 748 mmHg 39%
    16:00 +4°C° 0 mm 1 mps 748 mmHg 42%
    17:00 +4°C° 0 mm 1 mps 748 mmHg 45%
    18:00 +3°C° 0 mm 1 mps 748 mmHg 47%
    19:00 +3°C° 0 mm 1 mps 748 mmHg 50%
    20:00 +2°C° 0 mm 1 mps 748 mmHg 53%
    21:00 +2°C° 0 mm 1 mps 748 mmHg 56%
    22:00 +1°C° 0 mm 1 mps 748 mmHg 59%
    23:00 +1°C° 0 mm 1 mps 748 mmHg 59%

    Day after tomorrow, 24 November, Friday

    Time Temperature Precipitation Wind Pressure Humidity
    00:00 +1°C° 0 mm 1 mps 748 mmHg 60%
    01:00 -1°C° 0 mm 2 mps 749 mmHg 60%
    02:00 -1°C° 0 mm 2 mps 748 mmHg 61%
    03:00 -1°C° 0 mm 2 mps 748 mmHg 62%
    04:00 -1°C° 0 mm 2 mps 748 mmHg 64%
    05:00 +1°C° 0 mm 1 mps 748 mmHg 64%
    06:00 +1°C° 0 mm 1 mps 749 mmHg 65%
    07:00 0°C° 0 mm 1 mps 749 mmHg 66%
    08:00 +3°C° 0 mm 1 mps 749 mmHg 60%
    09:00 +5°C° 0 mm 1 mps 749 mmHg 55%
    10:00 +6°C° 0 mm 2 mps 749 mmHg 49%
    11:00 +7°C° 0 mm 2 mps 749 mmHg 48%
    12:00 +8°C° 0 mm 2 mps 748 mmHg 47%
    13:00 +8°C° 0 mm 2 mps 747 mmHg 46%
    14:00 +8°C° 0 mm 2 mps 747 mmHg 50%
    15:00 +7°C° 0 mm 3 mps 747 mmHg 54%
    16:00 +5°C° 0 mm 3 mps 747 mmHg 58%
    17:00 +4°C° 0 mm 3 mps 747 mmHg 60%
    18:00 +3°C° 0 mm 3 mps 747 mmHg 62%
    19:00 +3°C° 0 mm 3 mps 747 mmHg 63%
    20:00 +3°C° 0 mm 3 mps 747 mmHg 64%
    21:00 +3°C° 0 mm 3 mps 747 mmHg 64%
    22:00 +3°C° 0 mm 3 mps 746 mmHg 65%
    23:00 +3°C° 0 mm 3 mps 746 mmHg 68%

    25 November, Saturday

    Time Temperature Precipitation Wind Pressure Humidity
    00:00 +3°C° 0 mm 4 mps 746 mmHg 71%
    01:00 +3°C° 0 mm 4 mps 745 mmHg 75%
    02:00 +3°C° 0 mm 4 mps 745 mmHg 76%
    03:00 +3°C° 0 mm 4 mps 744 mmHg 77%
    04:00 +3°C° 0 mm 4 mps 744 mmHg 77%
    05:00 +3°C° 0 mm 3 mps 743 mmHg 79%
    06:00 +3°C° 0 mm 3 mps 743 mmHg 80%
    07:00 +3°C° 0 mm 3 mps 743 mmHg 82%
    08:00 +5°C° 0 mm 4 mps 743 mmHg 76%
    09:00 +6°C° 0 mm 4 mps 743 mmHg 70%
    10:00 +8°C° 0 mm 4 mps 742 mmHg 65%
    11:00 +8°C° 0 mm 4 mps 742 mmHg 64%
    12:00 +10°C° 0 mm 4 mps 741 mmHg 63%
    13:00 +10°C° 0 mm 4 mps 741 mmHg 62%
    14:00 +9°C° 0 mm 3 mps 741 mmHg 68%
    15:00 +8°C° 0 mm 3 mps 741 mmHg 73%
    16:00 +8°C° 0 mm 2 mps 741 mmHg 79%
    17:00 +7°C° 0 mm 2 mps 741 mmHg 82%
    18:00 +7°C° 0 mm 2 mps 741 mmHg 84%
    19:00 +6°C° 0 mm 2 mps 741 mmHg 87%
    20:00 +6°C° 0 mm 2 mps 741 mmHg 88%
    21:00 +5°C° 0 mm 2 mps 741 mmHg 88%
    22:00 +5°C° 0 mm 2 mps 741 mmHg 89%
    23:00 +5°C° 0 mm 2 mps 741 mmHg 90%

    26 November, Sunday

    Time Temperature Precipitation Wind Pressure Humidity
    00:00 +4°C° 0 mm 2 mps 741 mmHg 91%
    01:00 +4°C° 0 mm 2 mps 741 mmHg 92%
    02:00 +4°C° 0 mm 2 mps 741 mmHg 92%
    03:00 +3°C° 0 mm 2 mps 741 mmHg 92%
    04:00 +3°C° 0 mm 2 mps 741 mmHg 92%
    05:00 +2°C° 0 mm 3 mps 742 mmHg 86%
    06:00 +2°C° 0 mm 3 mps 742 mmHg 80%
    07:00 +1°C° 0 mm 4 mps 742 mmHg 75%
    08:00 +1°C° 0 mm 4 mps 743 mmHg 68%
    09:00 +2°C° 0 mm 5 mps 743 mmHg 62%
    10:00 +2°C° 0 mm 6 mps 743 mmHg 56%
    11:00 +2°C° 0 mm 6 mps 743 mmHg 54%
    12:00 +2°C° 0 mm 6 mps 743 mmHg 51%
    13:00 +2°C° 0 mm 6 mps 743 mmHg 49%
    14:00 +1°C° 0 mm 6 mps 744 mmHg 50%
    15:00 -1°C° 0 mm 6 mps 744 mmHg 51%
    16:00 -1°C° 0 mm 6 mps 745 mmHg 52%
    17:00 -2°C° 0 mm 6 mps 746 mmHg 54%
    18:00 -2°C° 0 mm 5 mps 747 mmHg 56%
    19:00 -4°C° 0 mm 5 mps 748 mmHg 58%
    20:00 -4°C° 0 mm 5 mps 748 mmHg 58%
    21:00 -5°C° 0 mm 5 mps 748 mmHg 59%
    22:00 -5°C° 0 mm 5 mps 749 mmHg 59%
    23:00 -5°C° 0 mm 4 mps 749 mmHg 58%

    27 November, Monday

    Time Temperature Precipitation Wind Pressure Humidity
    00:00 -5°C° 0 mm 4 mps 749 mmHg 58%
    01:00 -5°C° 0 mm 4 mps 749 mmHg 58%
    02:00 -5°C° 0 mm 4 mps 750 mmHg 57%
    03:00 -5°C° 0 mm 3 mps 750 mmHg 56%
    04:00 -5°C° 0 mm 3 mps 750 mmHg 55%
    05:00 -5°C° 0 mm 3 mps 751 mmHg 54%
    06:00 -4°C° 0 mm 3 mps 751 mmHg 53%
    07:00 -4°C° 0 mm 3 mps 752 mmHg 52%
    08:00 -2°C° 0 mm 3 mps 752 mmHg 48%
    09:00 0°C° 0 mm 3 mps 752 mmHg 44%
    10:00 +1°C° 0 mm 3 mps 752 mmHg 40%
    11:00 +3°C° 0 mm 2 mps 752 mmHg 39%
    12:00 +4°C° 0 mm 2 mps 751 mmHg 38%
    13:00 +6°C° 0 mm 2 mps 751 mmHg 36%
    14:00 +5°C° 0 mm 2 mps 751 mmHg 41%
    15:00 +4°C° 0 mm 2 mps 751 mmHg 45%
    16:00 +4°C° 0 mm 2 mps 751 mmHg 49%
    17:00 +3°C° 0 mm 2 mps 751 mmHg 53%
    18:00 +3°C° 0 mm 1 mps 752 mmHg 57%
    19:00 +2°C° 0 mm 1 mps 752 mmHg 60%
    20:00 +1°C° 0 mm 2 mps 752 mmHg 63%
    21:00 +1°C° 0 mm 2 mps 752 mmHg 66%
    22:00 +1°C° 0 mm 2 mps 752 mmHg 68%
    23:00 +1°C° 0 mm 2 mps 752 mmHg 70%
    Show more